EHI
0 0 0 0 0 0 0 0 0 0 0 0 0 0 0 0 0 0 0 0 0 0 0 0 0 0 1 3 2 1 1 1 1 0 0 0 0 0 0 0 0 0 0 0 0 0 0 0 0
0 0 0 0 0 0 0 0 0 0 0 0 0 0 0 0 0 0 0 0 0 0 0 0 0 0 0 1 1 1 2 3 1 0 0 0 0 0 0 0 0 0 0 0 0 0 0 0 0
0 0 0 0 0 0 0 0 0 0 0 0 0 0 0 0 0 0 0 0 0 0 0 0 0 0 0 0 0 0 2 3 1 0 0 0 0 0 0 0 0 0 0 0 0 0 0 0 0
0 0 0 0 0 0 0 0 0 0 0 0 0 0 0 0 0 0 0 0 0 0 0 0 0 0 0 0 0 0 0 1 0 0 0 0 0 0 0 0 0 0 0 0 0 0 0 0 0
0 0 0 0 0 0 0 0 0 0 0 0 0 0 0 0 0 0 0 0 0 0 0 0 0 0 0 0 0 0 0 0 0 0 0 0 0 0 0 0 0 0 0 0 0 0 0 0 0
0 0 0 0 0 0 0 0 0 0 0 0 0 0 0 0 0 0 0 0 0 0 0 0 0 0 0 0 0 0 0 0 0 0 0 0 0 0 0 0 0 0 0 0 0 0 0 0 0
0 0 0 0 0 0 0 0 0 0 0 0 0 0 0 0 0 0 0 0 0 0 0 0 0 0 0 0 0 0 0 0 0 0 0 0 0 0 0 0 0 0 0 0 0 0 0 0 0
0 0 0 0 0 0 0 0 0 0 0 0 0 0 0 0 0 0 0 0 0 0 0 0 0 0 0 0 0 0 0 0 0 0 0 0 0 0 0 0 0 0 0 0 0 0 0 0 0
0 0 0 0 0 0 0 0 0 0 0 0 0 0 0 0 0 0 0 0 0 0 0 0 0 0 0 0 0 0 0 0 0 0 0 0 0 0 0 0 0 0 0 0 0 0 0 0 0
0 0 0 0 0 0 0 0 0 0 0 0 0 0 0 0 0 0 0 0 0 0 0 0 0 0 0 0 0 0 0 0 0 0 0 0 0 0 0 0 0 0 0 0 0 0 0 0 0
0 0 0 0 0 0 0 0 0 0 0 0 0 0 0 0 0 0 0 0 0 0 0 0 0 0 0 0 0 0 0 0 0 0 0 0 0 0 0 0 0 0 0 0 0 0 0 0 0
0 0 0 0 0 0 0 0 0 0 0 0 0 0 0 0 0 0 0 0 0 0 0 0 0 0 0 0 0 0 0 0 0 0 0 0 0 0 0 0 0 0 0 0 0 0 0 0 0
0 0 0 0 0 0 0 0 0 0 0 0 0 0 0 0 0 0 0 0 0 0 0 0 0 0 0 0 0 0 0 0 0 0 0 0 0 0 0 0 0 0 0 0 0 0 0 0 0
0 0 0 0 0 0 0 0 0 0 0 0 0 0 0 0 0 0 0 0 0 0 0 0 0 0 0 0 0 0 0 0 0 0 0 0 0 0 0 0 0 0 0 0 0 0 0 0 0
0 0 0 0 0 0 0 0 0 0 0 0 0 0 0 0 0 0 0 0 0 0 0 0 0 0 0 0 0 0 0 0 0 0 0 0 0 0 0 0 0 0 0 0 0 0 0 0 0
0 0 0 0 0 0 0 0 0 0 0 0 0 0 0 0 0 0 0 0 0 0 0 0 0 0 0 0 0 0 0 0 0 0 0 0 0 0 0 0 0 0 0 0 0 0 0 0 0
0 0 0 0 0 0 0 0 0 0 0 0 0 0 0 0 0 0 0 0 0 0 0 0 0 0 0 0 0 0 0 0 0 0 0 0 0 0 0 0 0 0 0 0 0 0 0 0 0
0 0 0 0 0 0 0 0 0 0 0 0 0 0 0 0 0 0 0 0 0 0 0 0 0 0 0 0 0 0 0 0 0 0 0 0 0 0 0 0 0 0 0 0 0 0 0 0 0
0 0 0 0 0 0 0 0 0 0 0 0 0 0 0 0 0 0 0 0 0 0 0 0 0 0 0 0 0 0 0 0 0 0 0 0 0 0 0 0 0 0 0 0 0 0 0 0 0
0 0 0 0 0 0 0 0 0 0 0 0 0 0 0 0 0 0 0 0 0 0 0 0 0 0 0 0 0 0 0 0 0 0 0 0 0 0 0 0 0 0 0 0 0 0 0 0 0
0 0 0 0 0 0 0 0 0 0 0 0 0 0 0 0 0 0 0 0 0 0 0 0 0 0 0 0 0 0 0 0 0 0 0 0 0 0 0 0 0 0 0 0 0 0 0 0 0
0 0 0 0 0 0 0 0 0 0 0 0 0 0 0 0 0 0 0 0 0 0 0 0 0 0 0 0 0 0 0 0 0 0 0 0 0 0 0 0 0 0 0 0 0 0 0 0 0
0 0 0 0 0 0 0 0 0 0 0 0 0 0 0 0 0 0 0 0 0 0 0 0 0 0 0 0 0 0 0 0 0 0 0 0 0 0 0 0 0 0 0 0 0 0 0 0 0
0 0 0 0 0 0 0 0 0 0 0 0 0 0 0 0 0 0 0 0 0 0 0 0 0 0 0 0 0 0 0 0 0 0 0 0 0 0 0 0 0 0 0 0 0 0 0 0 0
0 0 0 0 0 0 0 0 0 0 0 0 0 0 0 0 0 0 0 0 0 0 0 0 0 0 0 0 0 0 0 0 0 0 0 0 0 0 0 0 0 0 0 0 0 0 0 0 0
0 0 0 0 0 0 0 0 0 0 0 0 0 0 0 0 0 0 0 0 0 0 0 0 0 0 0 0 0 0 0 0 0 0 0 0 0 0 0 0 0 0 0 0 0 0 0 0 0
0 0 0 0 0 0 0 0 0 0 0 0 0 0 0 0 0 0 0 0 0 0 0 0 0 0 0 0 0 0 0 0 0 0 0 0 0 0 0 0 0 0 0 0 0 0 0 0 0
0 0 0 0 0 0 0 0 0 0 0 0 0 0 0 0 0 0 0 0 0 0 0 0 0 0 0 0 0 0 0 0 0 0 0 0 0 0 0 0 0 0 0 0 0 0 0 0 0
0 0 0 0 0 0 0 0 0 0 0 0 0 0 0 0 0 0 0 0 0 0 0 0 0 0 0 0 0 0 0 0 0 0 0 0 0 0 0 0 0 0 0 0 0 0 0 0 0
0 0 0 0 0 0 0 0 0 0 0 0 0 0 0 0 0 0 0 0 0 0 0 0 0 0 0 0 0 0 0 0 0 0 0 0 0 0 0 0 0 0 0 0 0 0 0 0 0
Wind_Speed
3 2 3 4 5 3 3 4 3 3 2 1 4 5 5 4 5 5 4 5 4 8 7 8 11 13 13 14 14 13 13 13 12 10 10 9 9 8 8 7 7 9 11 12 12 10 10 10 10
1 1 4 4 4 0 5 4 4 5 2 1 1 1 2 4 3 3 2 6 5 7 6 6 9 11 12 13 13 13 14 13 12 11 9 9 9 9 8 4 4 6 8 9 9 9 8 9 10
2 3 4 4 3 5 5 5 4 2 2 2 1 2 3 4 3 4 4 7 6 6 6 6 9 10 10 12 14 12 13 15 13 10 8 8 8 7 7 7 6 7 7 7 7 8 9 9 10
3 4 4 2 4 7 6 5 2 2 2 2 1 3 4 4 3 3 4 8 7 5 5 7 10 11 11 10 11 10 11 12 11 10 10 10 9 9 8 7 8 9 9 8 8 9 9 10 11
5 4 2 2 5 6 5 5 2 2 2 1 2 3 5 2 1 2 6 9 8 5 3 4 9 11 13 14 13 13 12 12 12 12 11 10 10 9 7 7 8 9 9 9 9 10 10 11 12
4 3 1 4 6 6 5 2 2 2 2 2 2 2 5 2 1 3 5 6 6 6 4 3 6 8 10 12 14 14 14 14 14 13 12 11 10 9 9 9 10 10 10 10 11 11 11 11 11
3 3 2 3 5 6 3 1 2 2 2 4 3 2 5 3 3 5 6 5 4 4 4 3 4 5 7 9 11 12 13 14 14 14 13 11 10 10 10 10 11 11 11 11 11 11 11 10 11
4 4 1 3 3 5 2 2 2 3 3 2 3 4 5 1 3 5 4 3 4 5 5 4 4 4 4 5 8 9 11 11 11 11 10 9 8 8 8 6 10 12 13 13 12 11 11 10 11
4 3 3 5 4 4 1 1 2 2 2 3 5 6 4 3 5 6 3 2 4 5 5 5 5 5 5 4 6 8 10 10 9 8 10 8 4 4 3 3 9 12 13 12 12 11 11 10 9
4 3 7 6 5 3 2 3 3 2 5 5 6 6 2 4 6 9 11 12 12 13 11 7 7 6 5 4 4 5 5 6 6 6 6 5 3 3 4 3 7 9 10 11 11 11 9 7 4
5 6 5 6 6 3 3 4 3 3 9 11 9 8 5 6 9 12 14 15 19 17 14 12 9 7 6 5 4 3 3 4 5 6 6 5 4 3 3 3 4 4 6 5 6 6 4 4 3
4 8 6 4 2 2 3 5 4 7 19 11 12 8 5 10 14 18 19 19 16 15 16 13 11 9 8 6 5 5 5 5 5 5 7 5 4 4 4 3 3 2 2 3 3 3 4 4 4
5 5 6 5 2 4 6 11 6 12 22 11 8 9 11 12 14 15 15 16 13 15 16 15 14 14 11 8 6 6 7 7 7 7 7 7 6 6 6 5 4 3 3 3 4 3 4 4 4
4 4 6 4 5 6 8 15 5 21 11 11 8 13 13 13 14 11 14 18 18 19 18 17 19 18 15 13 12 10 8 7 6 7 8 9 7 7 6 6 5 4 3 3 3 3 3 3 3
1 6 9 6 6 5 4 10 14 21 6 13 14 13 11 13 13 18 20 20 21 19 17 20 19 18 18 16 14 10 8 7 7 8 8 9 8 8 7 6 5 4 4 4 4 3 3 3 2
2 2 7 5 3 4 6 12 21 7 6 12 14 12 12 13 13 17 18 18 17 17 18 19 18 20 20 18 15 11 9 10 9 8 8 10 9 9 7 6 5 5 4 4 4 3 3 2 2
3 7 8 8 9 7 7 12 15 5 3 11 15 15 14 18 19 17 16 16 15 18 18 19 20 21 21 17 13 11 10 10 8 8 8 9 9 9 8 7 6 7 5 4 4 2 2 2 2
9 7 7 8 9 4 8 14 14 15 14 19 19 19 19 20 26 19 11 12 13 15 17 18 19 18 17 13 9 7 8 7 7 8 9 10 10 10 9 7 7 7 5 5 4 3 3 2 1
4 8 13 12 10 8 19 21 17 17 17 25 22 19 20 19 21 18 9 8 9 10 13 15 16 16 16 15 14 12 13 11 10 10 12 12 11 11 10 8 8 8 7 7 6 4 3 2 1
5 10 18 16 13 13 21 24 18 22 22 22 23 22 15 16 18 18 5 4 8 12 14 15 16 17 18 15 13 8 8 8 9 7 8 10 11 12 11 11 10 9 7 7 7 6 4 2 1
7 10 17 15 8 7 14 16 9 13 11 12 19 19 10 14 19 19 7 6 8 9 12 14 16 17 16 13 9 4 6 4 3 6 8 11 13 14 13 12 10 10 9 8 8 6 6 5 2
14 13 12 9 6 7 6 18 6 9 9 11 12 8 10 10 10 12 9 8 9 9 8 9 11 13 15 17 17 17 12 11 12 12 12 12 13 14 14 13 12 10 8 7 6 5 4 6 4
9 4 4 3 3 7 1 8 10 2 6 12 9 7 6 7 7 9 10 10 9 4 6 8 10 12 13 15 18 19 14 8 6 7 10 10 10 10 11 12 11 10 9 8 8 7 5 4 5
3 1 3 3 2 10 8 10 22 2 4 5 9 10 8 8 11 11 7 6 8 5 1 6 11 12 13 14 15 17 15 10 11 12 12 11 9 9 12 13 12 11 10 9 9 7 7 5 4
2 2 3 2 5 10 3 8 16 7 9 8 9 8 6 7 8 11 10 9 9 5 2 2 6 9 13 15 15 15 15 14 16 15 14 14 12 12 14 14 12 11 11 10 8 7 6 6 5
8 8 9 8 10 13 5 11 19 9 11 9 5 4 5 7 7 8 9 7 6 4 3 6 7 7 10 13 14 13 12 9 9 11 12 13 12 12 14 14 13 13 13 11 10 7 5 5 6
5 9 8 8 13 14 17 18 23 18 12 4 2 4 6 9 8 8 9 8 7 7 6 5 7 8 10 11 12 13 15 14 12 11 12 12 11 10 14 17 15 14 14 14 13 9 9 8 6
6 5 4 5 7 11 16 16 18 31 30 10 9 10 11 10 10 12 13 12 11 9 7 9 9 8 5 8 11 10 13 13 12 13 15 14 15 15 17 17 16 15 14 13 13 10 10 10 8
5 5 7 8 9 13 22 17 11 20 17 14 16 16 19 21 19 17 16 16 16 15 14 12 9 7 7 7 7 7 8 8 9 10 14 15 14 16 18 19 18 18 17 16 14 12 13 13 11
5 8 8 12 16 14 17 12 9 9 20 26 23 21 20 19 18 16 15 15 15 16 17 17 15 11 10 8 8 10 9 9 10 13 14 15 16 17 18 19 19 19 19 19 18 16 15 15 14
Wind_Direction
4 31 69 54 51 48 260 249 246 254 237 185 145 151 177 198 182 227 265 210 183 154 166 164 165 176 179 177 171 176 186 177 168 157 147 138 117 91 74 72 66 75 81 77 71 66 58 57 54
24 58 61 66 84 44 258 241 243 234 236 118 150 173 232 249 232 257 243 201 178 154 155 153 156 160 172 174 171 178 177 164 150 135 127 119 113 111 98 99 87 87 88 86 90 89 82 72 65
47 53 75 84 125 202 236 233 233 251 211 179 225 239 236 236 224 235 217 167 154 147 144 146 152 160 169 167 166 177 170 154 142 137 151 158 157 148 144 147 137 122 110 107 104 93 84 77 74
56 49 54 116 221 231 225 250 251 283 241 220 221 264 257 226 206 212 164 152 149 147 138 149 157 169 172 169 164 167 162 153 156 170 184 176 167 159 155 144 130 123 121 115 101 91 86 82 76
52 69 48 312 255 252 249 255 214 228 246 210 189 265 272 273 1 138 151 154 155 145 132 145 163 176 181 183 179 179 176 169 174 182 176 168 161 157 147 140 130 126 119 109 100 91 84 79 75
51 66 56 272 272 279 275 250 172 223 238 213 201 253 259 278 224 180 161 156 150 148 146 152 169 179 182 190 193 189 185 180 177 176 171 167 161 157 153 145 133 125 116 109 97 90 86 79 75
105 99 228 250 282 292 278 161 194 211 240 232 175 234 274 280 212 158 148 138 139 148 153 167 163 159 174 187 185 189 184 177 176 171 172 166 163 160 152 146 137 129 121 110 100 92 86 79 73
121 112 242 254 260 272 264 215 225 194 240 198 178 228 253 277 123 113 111 133 161 173 177 178 169 158 161 170 172 178 170 170 170 167 157 148 151 146 143 148 140 135 128 121 114 107 98 86 76
100 92 229 231 211 253 235 255 254 194 244 225 219 218 219 119 123 115 120 183 210 216 209 190 180 172 164 161 170 166 162 163 161 148 127 112 99 104 121 163 143 139 132 125 117 110 101 88 74
123 173 224 217 211 249 271 230 254 230 261 256 259 252 175 147 169 177 187 197 206 211 209 202 193 182 169 166 166 155 150 149 142 130 122 122 134 143 143 118 122 124 121 117 110 101 90 79 64
170 207 223 235 221 246 283 268 216 177 263 234 224 236 196 185 199 205 208 203 207 207 204 200 195 184 177 175 165 155 147 141 142 144 142 142 147 144 114 83 63 60 74 84 88 83 74 73 63
208 235 223 238 199 245 266 284 250 190 252 238 224 233 198 202 207 212 213 215 210 205 207 201 192 187 187 178 177 170 166 161 163 160 154 152 155 156 150 143 148 144 129 117 109 111 112 103 91
223 245 244 243 262 266 281 267 244 246 256 259 254 244 231 223 221 222 225 227 215 213 206 198 191 194 190 186 183 181 183 180 171 164 167 164 167 168 162 164 164 163 151 146 144 139 122 110 97
230 261 275 284 248 227 231 267 234 257 263 278 255 248 239 232 231 220 222 225 215 215 206 195 196 194 189 193 192 190 187 178 169 174 175 174 171 166 166 165 166 167 160 144 137 129 111 96 81
297 303 298 252 230 227 190 268 242 253 261 270 272 267 264 247 228 223 227 222 216 213 205 200 195 194 194 195 194 191 183 174 181 184 178 177 175 172 168 163 164 166 152 138 131 117 111 111 113
307 273 279 269 172 211 166 252 267 260 241 265 274 275 276 269 243 235 234 230 216 207 203 198 192 194 197 197 192 190 182 183 186 183 180 181 179 171 162 159 165 157 152 153 149 140 135 119 94
273 249 245 271 241 215 206 246 261 288 223 259 271 272 269 271 266 248 234 231 214 206 201 195 190 193 195 194 188 186 181 188 185 178 181 182 179 170 163 163 161 156 156 165 157 139 144 113 73
231 235 246 247 271 236 233 252 272 288 284 268 266 272 271 268 266 267 243 223 212 204 200 194 191 192 185 180 174 170 175 185 175 182 186 182 179 171 163 162 159 158 158 172 167 139 96 81 55
219 239 257 263 267 275 272 271 270 269 271 277 276 269 268 270 275 275 255 216 203 195 193 192 189 184 173 175 174 179 192 186 188 191 188 183 178 174 170 165 163 166 172 176 165 130 116 76 45
243 264 272 273 262 268 275 274 272 262 254 256 270 276 281 290 289 286 279 230 207 203 195 188 188 181 182 184 184 185 179 185 188 183 183 180 175 174 175 174 176 174 171 171 173 156 139 122 72
234 240 261 273 301 276 292 283 242 269 263 258 261 270 282 267 281 298 324 250 236 222 204 195 188 183 181 176 164 118 103 95 134 172 185 185 182 180 179 178 176 177 178 180 181 171 163 144 99
252 233 250 272 301 293 342 300 184 235 272 276 271 277 273 284 296 301 302 270 237 229 206 193 178 178 180 173 174 177 181 185 193 189 190 188 187 181 178 176 175 176 176 174 173 175 178 142 145
236 189 213 208 213 280 218 271 277 256 261 280 296 293 314 320 320 307 294 288 278 239 181 171 163 167 180 185 185 184 192 182 156 162 170 175 181 181 179 176 173 175 175 172 169 176 178 166 158
219 103 66 50 60 273 203 224 284 207 255 305 315 316 336 340 331 319 313 315 324 352 64 149 156 161 172 188 197 197 195 168 157 164 168 168 174 180 184 178 179 178 175 173 175 175 179 180 166
155 124 316 306 187 240 172 202 263 275 273 272 276 279 310 335 324 328 341 0 354 355 50 135 156 166 171 185 199 204 201 186 180 175 176 174 178 188 193 185 181 178 178 174 167 170 181 175 177
183 169 199 231 257 280 276 253 267 258 265 259 252 281 331 331 345 346 343 356 338 316 195 177 189 188 182 188 197 198 201 198 194 182 177 179 186 188 178 182 183 181 175 171 168 168 171 171 177
205 196 219 251 265 266 266 270 288 289 285 290 334 336 342 327 336 341 339 348 349 325 283 227 207 206 195 198 201 203 198 190 189 185 182 183 187 178 171 181 183 182 178 173 169 173 169 168 173
212 233 219 216 236 251 245 255 275 290 289 311 337 346 337 325 340 359 6 3 10 353 341 332 322 305 271 225 215 211 217 209 190 184 196 193 185 175 173 181 185 180 182 178 172 172 165 165 173
218 242 246 250 239 251 265 259 261 274 311 2 13 10 20 24 22 17 16 16 14 10 10 1 339 320 305 290 275 259 245 228 207 201 203 200 192 181 178 182 184 183 182 182 180 177 171 176 175
233 250 250 258 261 257 269 268 285 8 28 34 31 20 11 7 4 3 4 7 9 9 12 10 353 341 327 300 263 244 236 226 219 214 212 202 195 188 184 183 185 188 187 184 184 181 179 180 180